Location: Newark
(54.8056°N, 24.4389°E)
Time: 12:58:47
(UTC+00:00)

ISS - Visible Passes

Search period start: 21 November 2019 00:00
Search period end: 01 December 2019 00:00
Orbit: 412 x 421 km, 51.6° (Epoch: 21 November)

Date Brightness Start Highest point End Pass type
(mag) Time Alt. Az. Time Alt. Az. Time Alt. Az.
23 Nov -1.1 16:43:23 10° S 16:43:45 11° S 16:43:45 11° S visible
24 Nov -1.3 15:56:16 10° SSE 15:57:19 11° SE 15:57:28 11° SE visible
24 Nov -0.6 17:30:17 10° SW 17:30:22 11° SW 17:30:22 11° SW visible
25 Nov -1.8 16:42:12 10° SSW 16:44:00 22° S 16:44:00 22° S visible
26 Nov -2.0 15:54:16 10° SSW 15:56:48 20° SSE 15:57:35 18° SE visible
26 Nov -0.8 17:29:50 10° WSW 17:30:29 15° WSW 17:30:29 15° WSW visible
27 Nov -1.5 15:06:36 10° S 15:08:35 15° SE 15:10:35 10° ESE visible
27 Nov -2.4 16:41:34 10° SW 16:44:00 33° SSW 16:44:00 33° SSW visible
28 Nov -2.5 15:53:21 10° SW 15:56:22 31° SSE 15:57:29 25° ESE visible
28 Nov -0.8 17:29:31 10° WSW 17:30:23 17° WSW 17:30:23 17° WSW visible
29 Nov -2.1 15:05:15 10° SSW 15:08:03 25° SSE 15:10:53 10° E visible
29 Nov -2.8 16:41:08 10° WSW 16:43:51 42° SSW 16:43:51 42° SSW visible
30 Nov -3.0 15:52:47 10° WSW 15:56:00 43° S 15:57:17 28° ESE visible
30 Nov -0.8 17:29:14 10° W 17:30:11 17° WSW 17:30:11 17° WSW visible
